Simultaneous Nadir Overpasses (SNOs) Predictions

Prediction of SNOs between AQUA and NOAA-19 Satellite Orbit:

Table of predicted SNOs for the next 14.0 days since TLE Epoch: 4/25/2014
Index Date (AQUA) Time (AQUA) Lat,Lon (AQUA) SZA (AQUA ) Date (NOAA-19) Time (NOAA-19) Lat,Lon (NOAA-19) SZA (NOAA-19 ) Distance(km) Time Diff (sec)
1 04/27/2014 10:59:59 75.02, 6.64 61.20 04/27/2014 10:59:14 75.01, 6.72 61.20 2.46 45
2 04/27/2014 11:49:06 -74.08, 176.59 119.83 04/27/2014 11:49:56 -74.09, 176.52 119.82 2.46 50
3 04/29/2014 15:44:28 75.46, -65.65 61.00 04/29/2014 15:43:18 75.46, -65.63 61.01 0.62 70
4 04/29/2014 16:33:34 -74.48, 104.57 120.09 04/29/2014 16:33:58 -74.48, 104.52 120.09 1.79 24
5 05/01/2014 21:18:00 -74.79, 32.71 120.43 05/01/2014 21:17:58 -74.79, 32.71 120.42 0.13 2
6 05/04/2014 02:02:25 -75.07, -39.11 120.77 05/04/2014 02:01:57 -75.06, -39.02 120.78 3.01 28
7 05/04/2014 02:51:30 73.92, 131.32 57.99 05/04/2014 02:52:37 73.92, 131.34 57.98 0.62 67
8 05/06/2014 06:46:52 -75.47,-111.29 120.95 05/06/2014 06:45:59 -75.47,-111.25 120.95 1.14 53
9 05/06/2014 07:35:55 74.24, 59.52 57.70 05/06/2014 07:36:37 74.23, 59.60 57.68 2.65 42
10 05/08/2014 11:33:47 -81.43, 138.59 112.89 05/08/2014 11:32:34 -80.87, 137.36 113.06 65.53 73




NCC Satellite Simultaneous Nadir Overpasses (SNOs) Prediction Service
